This is the latest recevied weather packets stored in our database for station/object KB1JL-13. If no packets are shown the sender has not sent any weather packets the latest 10 day(s).
| Time | Temp. | Humidity | Pressure | Rain* | Wind** | Luminosity | Snow |
|---|---|---|---|---|---|---|---|
| 1777651088 | 14.44° C | 53% | 1023.4 hPa | 0 mm | - | 734 W/m² | - |
| 1777649876 | 13.89° C | 54% | 1023.7 hPa | 0 mm | - | 764 W/m² | - |
| 1777649573 | 13.33° C | 52% | 1023.4 hPa | 0 mm | - | 792 W/m² | - |
| 1777649269 | 13.33° C | 58% | 1023.7 hPa | 0 mm | - | 806 W/m² | - |
| 1777648966 | 14.44° C | 51% | 1023.4 hPa | 0 mm | - | 868 W/m² | - |
| 1777648664 | 13.89° C | 53% | 1023.4 hPa | 0 mm | - | 820 W/m² | - |
| 1777648359 | 13.33° C | 54% | 1023.4 hPa | 0 mm | - | 785 W/m² | - |
| 1777648056 | 13.89° C | 57% | 1023.7 hPa | 0 mm | - | 721 W/m² | - |
| 1777647752 | 13.33° C | 54% | 1023.7 hPa | 0 mm | - | 764 W/m² | - |
| 1777647449 | 12.22° C | 55% | 1023.7 hPa | 0 mm | - | 798 W/m² | - |
| 1777647146 | 13.33° C | 54% | 1023.7 hPa | 0 mm | - | 184 W/m² | - |
| 1777646842 | 13.89° C | 53% | 1023.4 hPa | 0 mm | - | 334 W/m² | - |
| 1777646235 | 12.78° C | 54% | 1023.4 hPa | 0 mm | - | 702 W/m² | - |
| 1777645932 | 12.78° C | 58% | 1023.7 hPa | 0 mm | - | 693 W/m² | - |
| 1777645629 | 12.22° C | 57% | 1023.4 hPa | 0 mm | - | 700 W/m² | - |
| 1777645325 | 12.22° C | 60% | 1023.7 hPa | 0 mm | - | 695 W/m² | - |
| 1777645020 | 12.22° C | 61% | 1023.7 hPa | 0 mm | - | 690 W/m² | - |
| 1777644718 | 11.11° C | 65% | 1023.7 hPa | 0 mm | - | 698 W/m² | - |
| 1777644415 | 11.67° C | 64% | 1023.7 hPa | 0 mm | - | 134 W/m² | - |
| 1777644111 | 11.11° C | 65% | 1023.7 hPa | 0 mm | - | 391 W/m² | - |
| 1777643808 | 11.11° C | 64% | 1023.7 hPa | 0 mm | - | 176 W/m² | - |
| 1777643202 | 11.67° C | 63% | 1023.7 hPa | 0 mm | - | 776 W/m² | - |
| 1777642595 | 11.11° C | 68% | 1023.7 hPa | 0 mm | - | 504 W/m² | - |
| 1777642292 | 11.67° C | 64% | 1023.7 hPa | 0 mm | - | 289 W/m² | - |
| 1777641989 | 11.11° C | 66% | 1023.7 hPa | 0 mm | - | 372 W/m² | - |
* Rain latest hour (hover to see other rain measurements)
** Current wind speed in m/s (hover to see current wind gust speed)